Tracking 18942 objects as of 16-Jan-2018
HD Live streaming from Space Station
objects crossing your sky now

FENGYUN 1C DEB

Track FENGYUN 1C DEB now!
10-day predictions


NORAD ID: 38499
Int'l Code: 1999-025ESJ
Perigee: 837.2 km
Apogee: 1,201.8 km
Inclination: 98.4 °
Period: 105.4 minutes
Semi major axis: 7390 km
RCS: 0.0022 m2 (small)
Launch date: May 10, 1999
Source: People's Republic of China (PRC)
Launch site: Taiyaun Space Center, China (TSC)

Note: This is SATELLITE DEBRIS
aabbcc
Your satellite tracking list
Your tracking list is empty




NASA's NSSDC Master Catalog

Two Line Element Set (TLE):
1 38499U 99025ESJ 18006.56198971 +.00000443 +00000-0 +47001-3 0  9995
2 38499 098.4028 231.7145 0246625 322.3978 036.0144 13.66448865363043
Source of the keplerian elements: AFSPC